Tracking 31027 objects as of 19-Jul-2025
HD Live streaming from Space Station
objects crossing your sky now

FENGYUN 1C DEB

Track FENGYUN 1C DEB now!
10-day predictions


NORAD ID: 32209
Int'l Code: 1999-025CVF
Perigee: 841.1 km
Apogee: 1,342.2 km
Inclination: 99.4 °
Period: 106.9 minutes
Semi major axis: 7462 km
RCS: 0.0093 m2 (small)
Launch date: May 10, 1999
Source: People's Republic of China (PRC)
Launch site: Taiyaun Space Center, China (TSC)

Note: This is SATELLITE DEBRIS
Your satellite tracking list
FENGYUN 1C DEB
Track 1 satellite(s)




NASA's NSSDC Master Catalog

Two Line Element Set (TLE):
1 32209U 99025CVF 25199.58904561  .00001124  00000-0  13685-2 0  9998
2 32209  99.4083 155.5330 0335708  33.0732 329.0915 13.46673785880844
Source of the keplerian elements: AFSPC